KC5KAW Weather Reports


Display with metric or nautical units.
time (UTC)temp
F
wind
direction
speed
MPH
gust
MPH
rain 1hr
in
rain 24hr
in
rain mn
in
humidity
%
barometer
mb
20230201133334 37 82 2.0 8.0 0.00 0.00 0.00 99 1024.4
20230201132823 37 77 2.0 7.0 0.00 0.00 0.00 99 1024.4
20230201132315 37 65 2.0 7.0 0.00 0.00 0.00 99 1024.7
20230201131808 37 84 2.0 8.0 0.00 0.00 0.00 99 1024.9
20230201131302 37 89 3.0 8.0 0.00 0.00 0.00 99 1024.7
20230201130752 37 98 3.0 4.0 0.00 0.00 0.00 99 1024.7
20230201130233 37 54 1.0 4.0 0.00 0.00 0.00 99 1024.8
20230201125730 37 70 2.0 7.0 0.00 0.00 0.00 99 1024.8
20230201125216 36 51 2.0 7.0 0.00 0.00 0.00 99 1024.7
20230201124709 37 59 2.0 7.0 0.00 0.00 0.00 99 1025.2
20230201124200 37 74 3.0 8.0 0.00 0.00 0.00 99 1025.0
20230201123653 37 34 2.0 8.0 0.00 0.00 0.00 99 1025.2
20230201123416 37 58 1.0 8.0 0.00 0.00 0.00 99 1024.7
20230201122638 37 42 3.0 8.0 0.00 0.00 0.00 99 1024.4
20230201122133 37 75 2.0 8.0 0.00 0.00 0.00 99 1023.7
20230201121609 37 90 2.0 10.0 0.00 0.00 0.00 99 1024.0
20230201121050 37 53 0.0 10.0 0.00 0.00 0.00 99 1024.1
20230201120543 37 108 4.0 11.0 0.00 0.00 0.00 99 1024.0
20230201120309 37 77 2.0 11.0 0.00 0.00 0.00 99 1023.9
20230201115527 38 91 3.0 9.0 0.00 0.00 0.00 99 1023.8
20230201115020 38 65 4.0 10.0 0.00 0.00 0.00 99 1023.9
20230201114510 38 73 4.0 10.0 0.00 0.00 0.00 99 1023.8
20230201114002 38 84 6.0 9.0 0.00 0.00 0.00 98 1023.8
20230201113510 38 61 2.0 9.0 0.00 0.00 0.00 98 1023.7
20230201112948 38 88 6.0 9.0 0.00 0.00 0.00 98 1023.5
20230201112431 38 66 5.0 9.0 0.00 0.00 0.00 98 1023.6
20230201111918 38 37 3.0 11.0 0.00 0.00 0.00 97 1023.6
20230201111410 38 67 3.0 11.0 0.00 0.00 0.00 97 1023.2
20230201110902 38 88 4.0 10.0 0.00 0.00 0.00 97 1023.2
20230201110355 38 47 6.0 11.0 0.00 0.00 0.00 97 1023.2
20230201105846 38 74 1.0 7.0 0.00 0.00 0.00 98 1023.1
20230201105339 38 89 2.0 9.0 0.00 0.00 0.00 98 1022.8
20230201104830 38 103 4.0 9.0 0.00 0.00 0.00 98 1023.0
20230201104556 38 75 4.0 9.0 0.00 0.00 0.00 98 1023.3
20230201103815 38 38 1.0 9.0 0.00 0.00 0.00 98 1023.3
20230201102758 38 82 4.0 11.0 0.00 0.00 0.00 98 1023.0
20230201102305 38 67 5.0 11.0 0.00 0.00 0.00 98 1022.9
20230201101745 39 77 4.0 11.0 0.00 0.00 0.00 98 1023.5
20230201101236 38 41 5.0 11.0 0.00 0.00 0.00 98 1023.0
20230201100705 38 126 3.0 10.0 0.00 0.00 0.00 98 1023.2
20230201100158 38 122 4.0 7.0 0.00 0.00 0.00 98 1023.8
20230201095647 39 58 3.0 9.0 0.00 0.00 0.00 98 1023.8
20230201095139 38 83 2.0 9.0 0.00 0.00 0.00 98 1023.8
20230201094635 38 56 2.0 8.0 0.00 0.00 0.00 98 1024.1
20230201094112 39 46 1.0 8.0 0.00 0.00 0.00 99 1023.8
20230201093604 39 93 3.0 9.0 0.00 0.00 0.00 98 1023.5
20230201093057 38 74 5.0 9.0 0.00 0.00 0.00 99 1023.8
20230201092547 39 47 2.0 8.0 0.00 0.00 0.00 99 1023.8
20230201092039 39 58 2.0 8.0 0.00 0.00 0.00 99 1023.4
20230201091532 38 92 1.0 7.0 0.00 0.00 0.00 99 1024.2
20230201091022 38 67 0.0 7.0 0.00 0.00 0.00 99 1023.7
20230201090514 38 80 3.0 9.0 0.00 0.00 0.00 99 1023.0
20230201085956 38 98 4.0 13.0 0.00 0.00 0.00 99 1022.6
20230201085448 38 84 9.0 13.0 0.00 0.00 0.00 99 1022.9
20230201084940 38 83 4.0 8.0 0.00 0.00 0.00 99 1022.8
20230201084434 38 71 2.0 8.0 0.00 0.00 0.00 99 1022.9
20230201083926 38 80 3.0 7.0 0.00 0.00 0.00 99 1022.9
20230201083418 38 59 2.0 8.0 0.00 0.00 0.00 99 1023.1
20230201083138 38 48 3.0 8.0 0.00 0.00 0.00 99 1022.8
20230201082358 38 49 2.0 7.0 0.00 0.00 0.00 99 1022.6
20230201081853 38 60 1.0 8.0 0.00 0.00 0.00 99 1022.6
20230201081342 38 81 2.0 9.0 0.00 0.00 0.00 99 1022.9
20230201080835 38 59 2.0 9.0 0.00 0.00 0.00 99 1023.2
20230201080326 38 56 0.0 8.0 0.00 0.00 0.00 99 1023.1
20230201075821 38 55 1.0 7.0 0.00 0.00 0.00 99 1023.1
20230201075310 38 92 2.0 7.0 0.00 0.00 0.00 99 1023.2
20230201074804 38 76 2.0 7.0 0.00 0.00 0.00 99 1023.2
20230201074254 38 96 2.0 4.0 0.00 0.00 0.00 99 1023.2
20230201073748 38 49 2.0 13.0 0.00 0.00 0.00 99 1023.1
20230201073226 38 41 4.0 14.0 0.00 0.00 0.00 99 1022.5
20230201072723 38 78 9.0 14.0 0.00 0.00 0.00 99 1022.2
20230201072210 38 86 4.0 10.0 0.00 0.00 0.00 99 1022.1
20230201071702 38 73 3.0 7.0 0.00 0.00 0.00 99 1022.9
20230201071156 38 90 4.0 7.0 0.00 0.00 0.00 99 1023.1
20230201070645 38 76 1.0 7.0 0.00 0.00 0.00 99 1023.3
20230201070136 38 48 2.0 7.0 0.00 0.00 0.00 99 1023.3
20230201065902 38 91 3.0 7.0 0.00 0.00 0.00 99 1023.0
20230201065352 38 58 2.0 6.0 0.00 0.00 0.00 99 1023.2
20230201064615 38 66 0.0 10.0 0.00 0.00 0.00 99 1022.8
20230201064105 38 106 1.0 10.0 0.00 0.00 0.00 99 1022.8
20230201063600 38 77 7.0 10.0 0.00 0.00 0.00 99 1022.8
20230201063050 38 88 5.0 10.0 0.00 0.00 0.00 99 1023.1
20230201062812 38 61 2.0 7.0 0.00 0.00 0.00 99 1023.4
20230201062032 38 85 5.0 10.0 0.00 0.00 0.00 99 1023.2
20230201061524 38 93 3.0 10.0 0.00 0.00 0.00 99 1023.6
20230201061016 38 83 1.0 7.0 0.00 0.00 0.00 99 1023.7
20230201060509 38 93 2.0 9.0 0.00 0.00 0.00 99 1023.7
20230201060011 39 75 4.0 11.0 0.00 0.00 0.00 98 1024.1
20230201055956 38 53 4.0 11.0 0.00 0.00 0.00 97 1024.0
20230201055216 38 71 3.0 10.0 0.00 0.00 0.00 97 1024.1
20230201054929 39 82 3.0 8.0 0.00 0.00 0.00 97 1024.3
20230201054139 38 94 4.0 8.0 0.00 0.00 0.00 97 1024.2
20230201053901 39 93 1.0 8.0 0.00 0.00 0.00 97 1024.1
20230201052850 38 80 4.0 9.0 0.00 0.00 0.00 97 1024.1
20230201052343 38 94 2.0 9.0 0.00 0.00 0.00 97 1024.2
20230201051832 39 100 2.0 14.0 0.00 0.00 0.00 97 1024.3
20230201051546 38 100 4.0 14.0 0.00 0.00 0.00 97 1024.4
20230201050754 39 120 5.0 8.0 0.00 0.00 0.00 96 1024.5
20230201050510 38 100 4.0 8.0 0.00 0.00 0.00 96 1024.6
20230201045730 39 100 3.0 8.0 0.00 0.00 0.00 96 1024.4
20230201045441 39 75 1.0 4.0 0.00 0.00 0.00 96 1024.5
20230201044659 38 60 2.0 6.0 0.00 0.00 0.00 96 1024.6
20230201044151 38 85 4.0 6.0 0.00 0.00 0.00 96 1024.6
20230201043645 38 87 2.0 6.0 0.00 0.00 0.00 96 1024.7
20230201043137 38 42 2.0 6.0 0.00 0.00 0.00 96 1024.4
20230201042626 38 99 3.0 6.0 0.00 0.00 0.00 96 1024.8
20230201042120 38 63 1.0 6.0 0.00 0.00 0.00 96 1024.3
20230201041610 38 95 2.0 8.0 0.00 0.00 0.00 96 1024.2
20230201041101 38 80 3.0 8.0 0.00 0.00 0.00 95 1024.4
20230201040553 38 80 3.0 8.0 0.00 0.00 0.00 95 1024.6
20230201040046 38 54 1.0 8.0 0.00 0.00 0.00 95 1024.6
20230201035541 38 97 4.0 8.0 0.00 0.00 0.00 95 1024.6
20230201035020 38 66 2.0 7.0 0.00 0.00 0.00 95 1024.7
20230201034510 38 97 3.0 7.0 0.00 0.00 0.00 94 1024.7
20230201034236 38 86 1.0 8.0 0.00 0.00 0.00 95 1024.6
20230201033455 38 82 4.0 8.0 0.00 0.00 0.00 94 1024.8
20230201032949 38 84 2.0 9.0 0.00 0.00 0.00 94 1024.8
20230201032428 38 52 2.0 6.0 0.00 0.00 0.00 94 1024.9
20230201031923 38 53 2.0 9.0 0.00 0.00 0.00 94 1024.6
20230201031410 38 101 5.0 9.0 0.00 0.00 0.00 94 1024.2
20230201030902 38 75 2.0 9.0 0.00 0.00 0.00 94 1024.3
20230201030640 38 76 3.0 7.0 0.00 0.00 0.00 94 1024.4
20230201025835 38 67 3.0 11.0 0.00 0.00 0.00 94 1024.4
20230201025327 38 44 2.0 11.0 0.00 0.00 0.00 94 1024.1
20230201024818 38 90 3.0 9.0 0.00 0.00 0.00 94 1024.4
20230201024311 38 48 3.0 9.0 0.00 0.00 0.00 94 1024.2
20230201023803 38 61 2.0 11.0 0.00 0.00 0.00 94 1024.3
20230201023258 38 71 1.0 11.0 0.00 0.00 0.00 94 1024.2
20230201022735 38 75 3.0 14.0 0.00 0.00 0.00 94 1024.2
20230201022220 38 65 1.0 14.0 0.00 0.00 0.00 94 1024.2
20230201021709 38 62 2.0 9.0 0.00 0.00 0.00 94 1024.6
20230201021431 38 109 4.0 10.0 0.00 0.00 0.00 94 1024.2
20230201020925 38 58 2.0 10.0 0.00 0.00 0.00 94 1024.1
20230201020145 38 65 3.0 9.0 0.00 0.00 0.00 94 1024.3
20230201015636 38 96 3.0 9.0 0.00 0.00 0.00 94 1024.1
20230201015401 38 82 6.0 11.0 0.00 0.00 0.00 94 1023.9
20230201014620 38 83 5.0 11.0 0.00 0.00 0.00 94 1024.0
20230201014112 38 46 6.0 8.0 0.00 0.00 0.00 95 1024.0
20230201013834 38 29 2.0 11.0 0.00 0.00 0.00 96 1024.2
20230201013056 38 70 2.0 11.0 0.00 0.00 0.00 96 1024.2
20230201012551 38 68 3.0 9.0 0.00 0.00 0.00 97 1024.1
20230201012041 38 63 3.0 9.0 0.00 0.00 0.00 97 1023.7
20230201011521 38 105 4.0 9.0 0.00 0.00 0.00 96 1023.3
20230201011015 39 88 3.0 9.0 0.00 0.00 0.00 96 1023.3
20230201010505 39 44 4.0 13.0 0.00 0.00 0.00 96 1023.5
20230201005959 39 84 3.0 13.0 0.00 0.00 0.00 96 1023.5
20230201005448 39 104 2.0 10.0 0.00 0.00 0.00 96 1023.2
20230201005200 39 93 4.0 8.0 0.00 0.00 0.00 97 1023.5
20230201004410 39 60 3.0 8.0 0.00 0.00 0.00 97 1023.7
20230201003902 39 58 3.0 8.0 0.00 0.00 0.00 97 1023.5
20230201003355 38 80 2.0 8.0 0.00 0.00 0.00 97 1023.1
20230201002849 38 53 5.0 9.0 0.00 0.00 0.00 97 1023.3
20230201002338 38 61 2.0 11.0 0.00 0.00 0.00 97 1023.5
20230201001831 38 110 5.0 11.0 0.00 0.00 0.00 97 1023.4
20230201001325 38 113 4.0 8.0 0.00 0.00 0.00 97 1023.6
20230201000827 38 87 2.0 7.0 0.00 0.00 0.00 98 1023.4
20230201000309 38 77 3.0 10.0 0.00 0.00 0.00 98 1023.2
20230131235757 38 87 3.0 11.0 0.00 0.00 0.00 98 1023.1
20230131235249 38 113 5.0 11.0 0.00 0.00 0.00 98 1023.3
20230131234740 38 82 3.0 10.0 0.00 0.00 0.00 99 1023.3
20230131234235 38 37 3.0 10.0 0.00 0.00 0.00 99 1023.3
20230131234215 38 45 2.0 10.0 0.00 0.00 0.00 99 1023.3
20230131233207 38 73 2.0 9.0 0.00 0.00 0.00 99 1023.1
20230131233200 38 77 4.0 9.0 0.00 0.00 0.00 99 1023.0
20230131232424 38 43 2.0 9.0 0.00 0.00 0.00 99 1023.1
20230131231649 38 97 3.0 9.0 0.00 0.00 0.00 99 1023.0
20230131231644 38 89 4.0 9.0 0.00 0.00 0.00 99 1023.1
20230131231130 39 107 2.0 11.0 0.00 0.00 0.00 99 1022.9
20230131230117 39 54 6.0 11.0 0.00 0.00 0.00 99 1022.8
20230131225610 39 54 4.0 14.0 0.00 0.00 0.00 99 1023.0
20230131225102 39 49 5.0 14.0 0.00 0.00 0.00 99 1022.7
20230131224555 39 105 4.0 13.0 0.00 0.00 0.00 99 1022.3
20230131224548 39 76 4.0 9.0 0.00 0.00 0.00 99 1022.5
20230131223538 39 76 4.0 9.0 0.00 0.00 0.00 99 1022.3
20230131223023 39 36 4.0 10.0 0.00 0.00 0.00 99 1022.4
20230131222510 39 72 5.0 10.0 0.00 0.00 0.00 99 1022.2
20230131222003 40 86 3.0 10.0 0.00 0.00 0.00 99 1022.1
20230131221455 40 56 3.0 10.0 0.00 0.00 0.00 99 1022.5
20230131220949 40 55 5.0 9.0 0.00 0.00 0.00 99 1022.4
20230131220439 40 68 2.0 10.0 0.00 0.00 0.00 98 1022.3
20230131215930 40 91 2.0 10.0 0.00 0.00 0.00 98 1022.2
20230131215755 40 52 6.0 10.0 0.00 0.00 0.00 98 1022.5
20230131215647 41 2 3.0 10.0 0.00 0.00 0.00 97 1022.0
20230131214356 41 50 3.0 9.0 0.00 0.00 0.00 97 1021.9
20230131213834 41 95 3.0 9.0 0.00 0.00 0.00 97 1022.2
20230131213602 41 55 3.0 8.0 0.00 0.00 0.00 97 1021.6
20230131212825 41 58 2.0 9.0 0.00 0.00 0.00 97 1021.9
20230131212310 41 61 3.0 9.0 0.00 0.00 0.00 97 1021.4
20230131211804 41 72 2.0 8.0 0.00 0.00 0.00 97 1021.5
20230131211253 42 83 3.0 8.0 0.00 0.00 0.00 97 1021.5
20230131211034 41 35 4.0 8.0 0.00 0.00 0.00 97 1021.3
20230131210239 42 67 3.0 8.0 0.00 0.00 0.00 96 1021.1
20230131210004 42 59 3.0 7.0 0.00 0.00 0.00 96 1021.2
20230131205210 42 60 1.0 8.0 0.00 0.00 0.00 96 1021.0
20230131204703 42 79 3.0 9.0 0.00 0.00 0.00 96 1020.8
20230131204156 42 10 6.0 9.0 0.00 0.00 0.00 97 1021.2
20230131203921 42 60 5.0 10.0 0.00 0.00 0.00 97 1021.0
20230131203647 42 73 1.0 9.0 0.00 0.00 0.00 97 1021.2
20230131202903 42 32 4.0 10.0 0.00 0.00 0.00 97 1021.0
20230131202123 42 89 5.0 9.0 0.00 0.00 0.00 97 1021.1
20230131201627 42 48 5.0 11.0 0.00 0.00 0.00 97 1021.3
20230131201106 42 60 4.0 11.0 0.00 0.00 0.00 97 1021.1
20230131200558 42 75 4.0 8.0 0.00 0.00 0.00 97 1021.1
20230131200050 43 70 4.0 8.0 0.00 0.00 0.00 98 1021.4
20230131195541 42 104 3.0 9.0 0.00 0.00 0.00 98 1021.4
20230131195036 42 88 2.0 9.0 0.00 0.00 0.00 99 1021.5
20230131194758 42 65 4.0 9.0 0.00 0.00 0.00 98 1021.8
20230131194006 43 40 4.0 8.0 0.00 0.00 0.00 98 1021.5
20230131193458 43 65 4.0 8.0 0.00 0.00 0.00 98 1022.0
20230131193234 42 68 3.0 8.0 0.00 0.00 0.00 98 1021.7
20230131192458 43 48 4.0 9.0 0.00 0.00 0.00 97 1021.8
20230131191922 44 81 4.0 9.0 0.00 0.00 0.00 96 1022.0
20230131191416 44 71 3.0 8.0 0.00 0.00 0.00 96 1022.1
20230131191125 44 73 2.0 8.0 0.00 0.00 0.00 96 1021.9
20230131190617 45 75 5.0 8.0 0.00 0.00 0.00 96 1021.8
20230131185838 44 98 2.0 8.0 0.00 0.00 0.00 97 1022.5
20230131185336 44 71 4.0 8.0 0.00 0.00 0.00 97 1022.5
20230131185055 44 65 4.0 8.0 0.00 0.00 0.00 97 1022.1
20230131184314 44 79 4.0 6.0 0.00 0.00 0.00 96 1022.1
20230131183806 44 55 3.0 7.0 0.00 0.00 0.00 97 1022.4
20230131183258 44 85 2.0 9.0 0.00 0.00 0.00 98 1022.8
20230131182754 43 65 3.0 9.0 0.00 0.00 0.00 98 1023.0
20230131182232 43 65 2.0 9.0 0.00 0.00 0.00 99 1023.0
20230131181712 43 53 3.0 8.0 0.00 0.00 0.00 99 1022.7
20230131181208 43 89 4.0 7.0 0.00 0.00 0.00 99 1023.1
20230131180658 43 61 2.0 9.0 0.00 0.00 0.00 99 1022.8
20230131180148 43 4 4.0 9.0 0.00 0.00 0.00 99 1022.9
20230131175643 42 97 2.0 8.0 0.00 0.00 0.00 99 1023.3
20230131175132 42 55 2.0 7.0 0.00 0.00 0.00 99 1023.5
20230131174857 42 39 1.0 7.0 0.00 0.00 0.00 99 1023.5
20230131174116 42 40 4.0 9.0 0.00 0.00 0.00 99 1023.2
20230131173610 42 101 3.0 9.0 0.00 0.00 0.00 99 1023.3
20230131173100 42 85 3.0 8.0 0.00 0.00 0.00 99 1023.3
20230131172551 42 63 4.0 8.0 0.00 0.00 0.00 99 1023.7
20230131172056 42 102 4.0 8.0 0.00 0.00 0.00 99 1023.6
20230131171538 42 114 4.0 8.0 0.00 0.00 0.00 99 1023.9
20230131171017 42 58 4.0 8.0 0.00 0.00 0.00 99 1023.6
20230131170508 42 76 5.0 8.0 0.00 0.00 0.00 99 1023.8
20230131170001 42 85 1.0 7.0 0.00 0.00 0.00 99 1023.8
20230131165456 42 42 3.0 8.0 0.00 0.00 0.00 99 1023.9
20230131164944 42 89 4.0 9.0 0.00 0.00 0.00 99 1024.0
20230131164436 41 56 1.0 9.0 0.00 0.00 0.00 99 1023.8
20230131163928 41 91 4.0 7.0 0.00 0.00 0.00 99 1023.9
20230131163424 41 87 2.0 8.0 0.00 0.00 0.00 99 1023.8
20230131162913 41 20 2.0 8.0 0.00 0.00 0.00 99 1023.9
20230131162406 41 82 3.0 6.0 0.00 0.00 0.00 99 1023.6
20230131161857 41 80 1.0 8.0 0.00 0.00 0.00 99 1023.8
20230131161351 41 73 1.0 8.0 0.00 0.00 0.00 99 1023.8
20230131160840 41 92 4.0 9.0 0.00 0.00 0.00 99 1023.6
20230131160612 41 45 3.0 9.0 0.00 0.00 0.00 99 1023.6
20230131160327 40 119 2.0 9.0 0.00 0.00 0.00 99 1023.4
20230131155319 40 84 1.0 9.0 0.00 0.00 0.00 99 1023.1
20230131155041 40 79 2.0 9.0 0.00 0.00 0.00 99 1023.2
20230131154249 40 81 4.0 10.0 0.00 0.00 0.00 99 1023.3
20230131154014 40 99 4.0 10.0 0.00 0.00 0.00 99 1023.4
20230131153504 40 106 4.0 8.0 0.00 0.00 0.00 99 1023.2
20230131152725 40 65 5.0 8.0 0.00 0.00 0.00 99 1023.1
20230131152216 40 82 4.0 8.0 0.00 0.00 0.00 99 1023.0
20230131151712 40 84 1.0 8.0 0.00 0.00 0.00 99 1022.7
20230131151159 40 77 1.0 8.0 0.00 0.00 0.00 99 1022.7
20230131150655 40 81 2.0 8.0 0.00 0.00 0.00 99 1022.9
20230131150144 40 75 1.0 7.0 0.00 0.00 0.00 99 1022.6
20230131145637 39 65 2.0 9.0 0.00 0.00 0.00 99 1022.7
20230131145129 39 93 6.0 9.0 0.00 0.00 0.00 99 1022.7
20230131144620 39 66 2.0 8.0 0.00 0.00 0.00 99 1022.7
20230131144117 39 53 4.0 8.0 0.00 0.00 0.00 99 1022.6
20230131143604 39 78 2.0 8.0 0.00 0.00 0.00 99 1022.7
20230131143059 39 95 6.0 8.0 0.00 0.00 0.00 99 1022.2
20230131142548 39 48 1.0 8.0 0.00 0.00 0.00 99 1021.8
20230131142043 39 86 4.0 7.0 0.00 0.00 0.00 99 1022.1
20230131141803 39 78 3.0 7.0 0.00 0.00 0.00 99 1022.4
20230131141024 39 89 3.0 7.0 0.00 0.00 0.00 99 1022.1
20230131140516 39 106 2.0 9.0 0.00 0.00 0.00 99 1022.0
20230131140019 39 62 4.0 9.0 0.00 0.00 0.00 99 1022.3
20230131135452 39 85 2.0 8.0 0.00 0.00 0.00 99 1022.2
20230131134930 39 61 2.0 8.0 0.00 0.00 0.00 99 1022.3
20230131134422 39 80 2.0 6.0 0.00 0.00 0.00 99 1022.1
20230131133915 39 108 1.0 8.0 0.00 0.00 0.00 99 1022.0